Regional Weather Roundup
Issued by NWS

Home | Current Version | Previous Version | Graphics & Text | Print | Product List | Glossary On
Versions: 1 2 3 4 5 6 7 8 9 10 11 12 13 14 15 16 17 18 19 20 21 22 23 24 25 26 27 28 29 30 31 32 33 34 35 36 37 38 39 40 41 42 43 44 45 46 47 48 49 50
000
ASUS45 KCYS 270510
RWRWY

WYOMING REGIONAL WEATHER ROUNDUP
NATIONAL WEATHER SERVICE CHEYENNE WY
1100 PM MDT TUE MAY 26 2015

NOTE:  "FAIR" INDICATES FEW OR NO CLOUDS BELOW 12,000 FEET
WITH NO SIGNIFICANT WEATHER AND/OR OBSTRUCTIONS TO VISIBILITY.

WYZ001-270600-
YELLOWSTONE NATIONAL PARK

CITY           SKY/WX    TMP DP  RH WIND       PRES   REMARKS
LK YELLOWSTONE   N/A     36  33  89 CALM      30.14R
W YELLOWSTONE  NOT AVBL

$$
WYZ002>013-054>058-071-098>099-270600-
NORTHERN WYOMING

CITY           SKY/WX    TMP DP  RH WIND       PRES   REMARKS
JACKSON        FAIR      43  43 100 SE3       30.10S
CODY           CLOUDY    52  46  82 CALM      30.01S
GREYBULL       CLOUDY    60  46  59 NW7       29.95F
WORLAND        FAIR      56  48  74 W3        29.96S
SHERIDAN       CLOUDY    54  48  80 CALM      29.99S
BUFFALO        MOCLDY    54  45  71 NW12      30.02F
GILLETTE       FAIR      54  47  77 S6        29.98S
HULETT         FAIR      55  46  71 CALM      30.00F
NEWCASTLE      FAIR      57  45  62 E9        30.03R

$$
WYZ014>020-022>026-101>103-270600-
CENTRAL WYOMING

CITY           SKY/WX    TMP DP  RH WIND       PRES   REMARKS
BIG PINEY      CLOUDY    47  44  90 NW3       30.11R
PINEDALE       CLOUDY    43  43 100 NW3       30.12R
DUBOIS         FAIR      45  36  70 NW10      30.07F
LANDER         FAIR      54  40  59 SW6       30.00F
RIVERTON       CLOUDY    54  46  74 NW12      30.02R
CASPER         LGT RAIN  51  48  89 S7        30.04F
DOUGLAS        LGT RAIN  53  50  89 NW5       30.05R

$$
WYZ021-027>030-104>119-270600-
SOUTHERN WYOMING

CITY           SKY/WX    TMP DP  RH WIND       PRES   REMARKS
EVANSTON       FAIR      43  41  93 SW8       30.14R
KEMMERER       MOCLDY    43  41  93 W3        30.14R
FORT BRIDGER   MOCLDY    46  46 100 W5        30.16R
ROCK SPRINGS   LGT RAIN  47  43  86 W3        30.12R
DIXON          LGT RAIN  50  43  79 W5        30.17R
RAWLINS        LGT RAIN  46  43  89 W6        30.12S
SARATOGA       MOCLDY    46  43  87 W3        30.14S
LARAMIE        FAIR      47  39  74 S9        30.13R
CHEYENNE       FAIR      51  47  86 S5        30.10S
TORRINGTON     LGT RAIN  58  53  84 W5        30.04R
PINE BLUFFS    FAIR      52  46  82 CALM      30.08S

$$


USA.gov is the U.S. government's official web portal to all federal, state and local government web resources and services.